This is the latest recevied weather packets stored in our database for station/object AI5YA-13. If no packets are shown the sender has not sent any weather packets the latest 10 day(s).
| Time | Temp. | Humidity | Pressure | Rain* | Wind** | Luminosity | Snow |
|---|---|---|---|---|---|---|---|
| 1777505998 | 23.33° C | 43% | 1013.3 hPa | 0 mm | - | 162 W/m² | - |
| 1777505694 | 23.33° C | 42% | 1013.1 hPa | 0 mm | - | 137 W/m² | - |
| 1777505391 | 23.89° C | 41% | 1013 hPa | 0 mm | - | 129 W/m² | - |
| 1777505088 | 23.89° C | 41% | 1012.9 hPa | 0 mm | - | 120 W/m² | - |
| 1777504785 | 23.89° C | 41% | 1013.2 hPa | 0 mm | - | 190 W/m² | - |
| 1777504482 | 23.33° C | 41% | 1013.4 hPa | 0 mm | - | 170 W/m² | - |
| 1777504177 | 23.89° C | 40% | 1013.2 hPa | 0 mm | - | 210 W/m² | - |
| 1777503873 | 23.89° C | 40% | 1013.2 hPa | 0 mm | - | 195 W/m² | - |
| 1777503569 | 23.89° C | 41% | 1013.5 hPa | 0 mm | - | 240 W/m² | - |
| 1777503267 | 23.89° C | 41% | 1013.6 hPa | 0 mm | - | 150 W/m² | - |
| 1777502963 | 23.89° C | 41% | 1013.6 hPa | 0 mm | - | 143 W/m² | - |
| 1777502661 | 23.33° C | 42% | 1013.4 hPa | 0 mm | - | 198 W/m² | - |
| 1777502357 | 23.89° C | 40% | 1013.5 hPa | 0 mm | - | 200 W/m² | - |
| 1777502054 | 23.89° C | 40% | 1013.3 hPa | 0 mm | - | 241 W/m² | - |
| 1777501751 | 24.44° C | 40% | 1013.9 hPa | 0 mm | - | 246 W/m² | - |
| 1777501449 | 23.89° C | 40% | 1013.7 hPa | 0 mm | - | 555 W/m² | - |
| 1777501145 | 23.89° C | 39% | 1013.5 hPa | 0 mm | - | 244 W/m² | - |
| 1777500844 | 23.89° C | 40% | 1014 hPa | 0 mm | - | 586 W/m² | - |
| 1777500541 | 23.89° C | 40% | 1013.5 hPa | 0 mm | - | 391 W/m² | - |
| 1777500237 | 23.89° C | 40% | 1013.7 hPa | 0 mm | - | 285 W/m² | - |
| 1777499934 | 23.89° C | 40% | 1014 hPa | 0 mm | - | 266 W/m² | - |
| 1777499630 | 23.89° C | 40% | 1013.9 hPa | 0 mm | - | 230 W/m² | - |
| 1777499327 | 23.89° C | 40% | 1014.1 hPa | 0 mm | - | 241 W/m² | - |
| 1777499025 | 23.89° C | 40% | 1014 hPa | 0 mm | - | 203 W/m² | - |
| 1777498721 | 23.89° C | 40% | 1014.1 hPa | 0 mm | - | 674 W/m² | - |
* Rain latest hour (hover to see other rain measurements)
** Current wind speed in m/s (hover to see current wind gust speed)